Time,TemperatureF,DewpointF,PressureIn,WindDirection,WindDirectionDegrees,WindSpeedMPH,WindSpeedGustMPH,Humidity,HourlyPrecipIn,Conditions,Clouds,dailyrainin,SoftwareType,DateUTC
2013-03-27 00:00:00,36.3,7.1,29.29,SSE,166,4.0,4.0,29,0.00,,,0.00,VWS V13.01,2013-03-27 04:00:00,
2013-03-27 00:05:00,36.3,7.1,29.29,SSE,166,4.0,4.0,29,0.00,,,0.00,VWS V13.01,2013-03-27 04:05:00,
2013-03-27 00:10:00,36.3,7.1,29.29,SSE,166,4.0,4.0,29,0.00,,,0.00,VWS V13.01,2013-03-27 04:10:00,
2013-03-27 00:15:00,36.1,7.0,29.29,SSE,166,4.0,4.0,29,0.00,,,0.00,VWS V13.01,2013-03-27 04:15:00,
2013-03-27 00:20:00,36.1,7.7,29.29,SSE,166,4.0,4.0,30,0.00,,,0.00,VWS V13.01,2013-03-27 04:20:00,
2013-03-27 00:25:00,36.1,7.7,29.29,SSE,166,4.0,4.0,30,0.00,,,0.00,VWS V13.01,2013-03-27 04:25:00,
2013-03-27 00:30:00,36.0,7.6,29.29,SSE,166,4.0,4.0,30,0.00,,,0.00,VWS V13.01,2013-03-27 04:30:00,
2013-03-27 00:35:00,36.0,7.6,29.29,SSE,166,4.0,4.0,30,0.00,,,0.00,VWS V13.01,2013-03-27 04:35:00,
2013-03-27 00:40:00,35.8,7.4,29.29,SSE,166,4.0,4.0,30,0.00,,,0.00,VWS V13.01,2013-03-27 04:40:00,
2013-03-27 00:45:00,35.8,7.4,29.29,SSE,166,4.0,4.0,30,0.00,,,0.00,VWS V13.01,2013-03-27 04:45:00,
2013-03-27 00:50:00,35.8,7.4,29.29,SSE,166,4.0,4.0,30,0.00,,,0.00,VWS V13.01,2013-03-27 04:50:00,
2013-03-27 00:55:00,35.8,7.4,29.29,SSE,166,4.0,4.0,30,0.00,,,0.00,VWS V13.01,2013-03-27 04:55:00,
2013-03-27 01:00:00,35.8,7.4,29.29,SSE,166,4.0,4.0,30,0.00,,,0.00,VWS V13.01,2013-03-27 05:00:00,
2013-03-27 01:05:00,35.6,7.2,29.29,SSE,166,4.0,4.0,30,0.00,,,0.00,VWS V13.01,2013-03-27 05:05:00,
2013-03-27 01:10:00,35.6,7.2,29.29,SSE,166,4.0,4.0,30,0.00,,,0.00,VWS V13.01,2013-03-27 05:10:00,
2013-03-27 01:15:00,35.4,7.1,29.29,SSE,166,4.0,4.0,30,0.00,,,0.00,VWS V13.01,2013-03-27 05:15:00,
2013-03-27 01:20:00,35.4,7.8,29.29,SSE,166,4.0,4.0,31,0.00,,,0.00,VWS V13.01,2013-03-27 05:20:00,
2013-03-27 01:25:00,35.4,7.8,29.29,SSE,166,4.0,4.0,31,0.00,,,0.00,VWS V13.01,2013-03-27 05:25:00,
2013-03-27 01:30:00,35.2,7.7,29.29,SSE,166,4.0,4.0,31,0.00,,,0.00,VWS V13.01,2013-03-27 05:30:00,
2013-03-27 01:35:00,35.2,7.7,29.29,SSE,166,4.0,4.0,31,0.00,,,0.00,VWS V13.01,2013-03-27 05:35:00,
2013-03-27 01:40:00,35.1,7.5,29.29,SSE,166,4.0,4.0,31,0.00,,,0.00,VWS V13.01,2013-03-27 05:40:00,
2013-03-27 01:45:00,34.9,7.3,29.29,SSE,166,4.0,4.0,31,0.00,,,0.00,VWS V13.01,2013-03-27 05:45:00,
2013-03-27 01:50:00,34.9,7.3,29.29,SSE,166,4.0,4.0,31,0.00,,,0.00,VWS V13.01,2013-03-27 05:50:00,
2013-03-27 01:55:00,34.7,7.2,29.29,SSE,166,4.0,4.0,31,0.00,,,0.00,VWS V13.01,2013-03-27 05:55:00,
2013-03-27 02:00:00,34.5,7.0,29.29,SSE,166,4.0,4.0,31,0.00,,,0.00,VWS V13.01,2013-03-27 06:00:00,
2013-03-27 02:05:00,34.5,7.0,29.29,SSE,166,4.0,4.0,31,0.00,,,0.00,VWS V13.01,2013-03-27 06:05:00,
2013-03-27 02:10:00,34.3,7.6,29.29,SSE,166,4.0,4.0,32,0.00,,,0.00,VWS V13.01,2013-03-27 06:10:00,
2013-03-27 02:15:00,34.2,7.4,29.29,SSE,166,4.0,4.0,32,0.00,,,0.00,VWS V13.01,2013-03-27 06:15:00,
2013-03-27 02:20:00,34.0,7.2,29.29,SSE,166,4.0,4.0,32,0.00,,,0.00,VWS V13.01,2013-03-27 06:20:00,
2013-03-27 02:25:00,34.0,7.9,29.29,SSE,166,4.0,4.0,33,0.00,,,0.00,VWS V13.01,2013-03-27 06:25:00,
2013-03-27 02:30:00,34.0,7.9,29.29,SSE,166,4.0,4.0,33,0.00,,,0.00,VWS V13.01,2013-03-27 06:30:00,
2013-03-27 02:35:00,34.2,8.1,29.29,SSE,166,4.0,4.0,33,0.00,,,0.00,VWS V13.01,2013-03-27 06:35:00,
2013-03-27 02:40:00,34.2,8.1,29.29,SSE,166,4.0,4.0,33,0.00,,,0.00,VWS V13.01,2013-03-27 06:40:00,
2013-03-27 02:45:00,34.2,8.1,29.29,SSE,166,4.0,4.0,33,0.00,,,0.00,VWS V13.01,2013-03-27 06:45:00,
2013-03-27 02:50:00,34.2,8.1,29.29,SSE,166,4.0,4.0,33,0.00,,,0.00,VWS V13.01,2013-03-27 06:50:00,
2013-03-27 02:55:00,34.3,7.6,29.29,SSE,166,4.0,4.0,32,0.00,,,0.00,VWS V13.01,2013-03-27 06:55:00,
2013-03-27 03:00:00,34.3,7.6,29.29,SSE,166,4.0,4.0,32,0.00,,,0.00,VWS V13.01,2013-03-27 07:00:00,
2013-03-27 03:05:00,34.3,7.6,29.29,SSE,166,4.0,4.0,32,0.00,,,0.00,VWS V13.01,2013-03-27 07:05:00,
2013-03-27 03:10:00,34.3,7.6,29.29,SSE,166,4.0,4.0,32,0.00,,,0.00,VWS V13.01,2013-03-27 07:10:00,
2013-03-27 03:15:00,34.2,7.4,29.29,SSE,166,4.0,4.0,32,0.00,,,0.00,VWS V13.01,2013-03-27 07:15:00,
2013-03-27 03:20:00,34.2,7.4,29.29,SSE,166,4.0,4.0,32,0.00,,,0.00,VWS V13.01,2013-03-27 07:20:00,
2013-03-27 03:25:00,34.2,7.4,29.29,SSE,166,4.0,4.0,32,0.00,,,0.00,VWS V13.01,2013-03-27 07:25:00,
2013-03-27 03:30:00,34.2,7.4,29.29,SSE,166,4.0,4.0,32,0.00,,,0.00,VWS V13.01,2013-03-27 07:30:00,
2013-03-27 03:35:00,34.2,7.4,29.29,SSE,166,4.0,4.0,32,0.00,,,0.00,VWS V13.01,2013-03-27 07:35:00,
2013-03-27 03:40:00,34.2,7.4,29.29,SSE,166,4.0,4.0,32,0.00,,,0.00,VWS V13.01,2013-03-27 07:40:00,
2013-03-27 03:45:00,34.2,6.7,29.29,SSE,166,4.0,4.0,31,0.00,,,0.00,VWS V13.01,2013-03-27 07:45:00,
2013-03-27 03:50:00,34.0,7.2,29.29,SSE,166,4.0,4.0,32,0.00,,,0.00,VWS V13.01,2013-03-27 07:50:00,
2013-03-27 03:55:00,34.0,7.2,29.29,SSE,166,4.0,4.0,32,0.00,,,0.00,VWS V13.01,2013-03-27 07:55:00,
2013-03-27 04:00:00,34.0,7.2,29.29,SSE,166,4.0,4.0,32,0.00,,,0.00,VWS V13.01,2013-03-27 08:00:00,
2013-03-27 04:05:00,34.0,6.5,29.29,SSE,166,4.0,4.0,31,0.00,,,0.00,VWS V13.01,2013-03-27 08:05:00,
2013-03-27 04:10:00,34.0,6.5,29.29,SSE,166,4.0,4.0,31,0.00,,,0.00,VWS V13.01,2013-03-27 08:10:00,
2013-03-27 04:15:00,34.0,6.5,29.29,SSE,166,4.0,4.0,31,0.00,,,0.00,VWS V13.01,2013-03-27 08:15:00,
2013-03-27 04:20:00,34.0,6.5,29.29,SSE,166,4.0,4.0,31,0.00,,,0.00,VWS V13.01,2013-03-27 08:20:00,
2013-03-27 04:25:00,34.0,6.5,29.29,SSE,166,4.0,4.0,31,0.00,,,0.00,VWS V13.01,2013-03-27 08:25:00,
2013-03-27 04:30:00,34.0,6.5,29.29,SSE,166,4.0,4.0,31,0.00,,,0.00,VWS V13.01,2013-03-27 08:30:00,
2013-03-27 04:35:00,34.0,6.5,29.29,SSE,166,4.0,4.0,31,0.00,,,0.00,VWS V13.01,2013-03-27 08:35:00,
2013-03-27 04:40:00,34.0,6.5,29.29,SSE,166,4.0,4.0,31,0.00,,,0.00,VWS V13.01,2013-03-27 08:40:00,
2013-03-27 04:45:00,34.0,7.2,29.29,SSE,166,4.0,4.0,32,0.00,,,0.00,VWS V13.01,2013-03-27 08:45:00,
2013-03-27 04:50:00,34.0,7.9,29.29,SSE,166,4.0,4.0,33,0.00,,,0.00,VWS V13.01,2013-03-27 08:50:00,
2013-03-27 04:55:00,34.0,7.9,29.29,SSE,166,4.0,4.0,33,0.00,,,0.00,VWS V13.01,2013-03-27 08:55:00,
2013-03-27 05:00:00,34.0,8.6,29.29,SSE,166,4.0,4.0,34,0.00,,,0.00,VWS V13.01,2013-03-27 09:00:00,
2013-03-27 05:05:00,34.0,9.2,29.29,SSE,166,4.0,4.0,35,0.00,,,0.00,VWS V13.01,2013-03-27 09:05:00,
2013-03-27 05:10:00,33.8,10.3,29.29,SSE,166,4.0,4.0,37,0.00,,,0.00,VWS V13.01,2013-03-27 09:10:00,
2013-03-27 05:15:00,33.6,10.7,29.29,SSE,166,4.0,4.0,38,0.00,,,0.00,VWS V13.01,2013-03-27 09:15:00,
2013-03-27 05:20:00,33.6,11.9,29.29,SSE,166,4.0,4.0,40,0.00,,,0.00,VWS V13.01,2013-03-27 09:20:00,
2013-03-27 05:25:00,33.4,11.7,29.29,SSE,166,4.0,4.0,40,0.00,,,0.00,VWS V13.01,2013-03-27 09:25:00,
2013-03-27 05:30:00,33.4,11.7,29.29,SSE,166,4.0,4.0,40,0.00,,,0.00,VWS V13.01,2013-03-27 09:30:00,
2013-03-27 05:35:00,33.3,11.6,29.29,SSE,166,4.0,4.0,40,0.00,,,0.00,VWS V13.01,2013-03-27 09:35:00,
2013-03-27 05:40:00,33.1,11.4,29.29,SSE,166,4.0,4.0,40,0.00,,,0.00,VWS V13.01,2013-03-27 09:40:00,
2013-03-27 05:45:00,33.1,11.4,29.29,SSE,166,4.0,4.0,40,0.00,,,0.00,VWS V13.01,2013-03-27 09:45:00,
2013-03-27 05:50:00,33.1,11.4,29.29,SSE,166,4.0,4.0,40,0.00,,,0.00,VWS V13.01,2013-03-27 09:50:00,
2013-03-27 05:55:00,33.1,10.2,29.29,SSE,166,4.0,4.0,38,0.00,,,0.00,VWS V13.01,2013-03-27 09:55:00,
2013-03-27 06:00:00,32.9,8.9,29.29,SSE,166,4.0,4.0,36,0.00,,,0.00,VWS V13.01,2013-03-27 10:00:00,
2013-03-27 06:05:00,32.9,8.3,29.29,SSE,166,4.0,4.0,35,0.00,,,0.00,VWS V13.01,2013-03-27 10:05:00,
2013-03-27 06:10:00,32.9,7.6,29.29,SSE,166,4.0,4.0,34,0.00,,,0.00,VWS V13.01,2013-03-27 10:10:00,
2013-03-27 06:15:00,32.7,7.5,29.29,SSE,166,4.0,4.0,34,0.00,,,0.00,VWS V13.01,2013-03-27 10:15:00,
2013-03-27 06:20:00,32.5,7.3,29.29,SSE,166,4.0,4.0,34,0.00,,,0.00,VWS V13.01,2013-03-27 10:20:00,
2013-03-27 06:25:00,32.5,7.9,29.29,SSE,166,4.0,4.0,35,0.00,,,0.00,VWS V13.01,2013-03-27 10:25:00,
2013-03-27 06:30:00,32.5,7.9,29.29,SSE,166,4.0,4.0,35,0.00,,,0.00,VWS V13.01,2013-03-27 10:30:00,
2013-03-27 06:35:00,32.5,7.9,29.29,SSE,166,4.0,4.0,35,0.00,,,0.00,VWS V13.01,2013-03-27 10:35:00,
2013-03-27 06:40:00,32.5,7.9,29.29,SSE,166,4.0,4.0,35,0.00,,,0.00,VWS V13.01,2013-03-27 10:40:00,
2013-03-27 06:45:00,32.4,7.1,29.29,SSE,166,4.0,4.0,34,0.00,,,0.00,VWS V13.01,2013-03-27 10:45:00,
2013-03-27 06:50:00,32.2,7.0,29.29,SSE,166,4.0,4.0,34,0.00,,,0.00,VWS V13.01,2013-03-27 10:50:00,
2013-03-27 06:55:00,32.0,6.8,29.29,SSE,166,4.0,4.0,34,0.00,,,0.00,VWS V13.01,2013-03-27 10:55:00,
2013-03-27 07:00:00,31.8,7.3,29.29,SSE,166,4.0,4.0,35,0.00,,,0.00,VWS V13.01,2013-03-27 11:00:00,
2013-03-27 07:05:00,31.8,7.9,29.29,SSE,166,4.0,4.0,36,0.00,,,0.00,VWS V13.01,2013-03-27 11:05:00,
2013-03-27 07:10:00,31.8,8.5,29.29,SSE,166,4.0,4.0,37,0.00,,,0.00,VWS V13.01,2013-03-27 11:10:00,
2013-03-27 07:15:00,32.0,8.1,29.29,SSE,166,4.0,4.0,36,0.00,,,0.00,VWS V13.01,2013-03-27 11:15:00,
2013-03-27 07:20:00,31.8,7.3,29.29,SSE,166,4.0,4.0,35,0.00,,,0.00,VWS V13.01,2013-03-27 11:20:00,
2013-03-27 07:25:00,31.8,7.3,29.29,SSE,166,4.0,4.0,35,0.00,,,0.00,VWS V13.01,2013-03-27 11:25:00,
2013-03-27 07:30:00,31.8,7.3,29.29,SSE,166,4.0,4.0,35,0.00,,,0.00,VWS V13.01,2013-03-27 11:30:00,
2013-03-27 07:35:00,31.8,6.7,29.29,SSE,166,4.0,4.0,34,0.00,,,0.00,VWS V13.01,2013-03-27 11:35:00,
2013-03-27 07:40:00,31.6,6.5,29.29,SSE,166,4.0,4.0,34,0.00,,,0.00,VWS V13.01,2013-03-27 11:40:00,
2013-03-27 07:45:00,31.6,6.5,29.29,SSE,166,4.0,4.0,34,0.00,,,0.00,VWS V13.01,2013-03-27 11:45:00,
2013-03-27 07:50:00,31.6,6.5,29.29,SSE,166,4.0,4.0,34,0.00,,,0.00,VWS V13.01,2013-03-27 11:50:00,
2013-03-27 07:55:00,31.8,6.7,29.29,SSE,166,4.0,4.0,34,0.00,,,0.00,VWS V13.01,2013-03-27 11:55:00,
2013-03-27 08:00:00,31.8,6.0,29.29,SSE,166,4.0,4.0,33,0.00,,,0.00,VWS V13.01,2013-03-27 12:00:00,
2013-03-27 08:05:00,31.6,5.8,29.29,SSE,166,4.0,4.0,33,0.00,,,0.00,VWS V13.01,2013-03-27 12:05:00,
2013-03-27 08:10:00,31.8,6.0,29.29,SSE,166,4.0,4.0,33,0.00,,,0.00,VWS V13.01,2013-03-27 12:10:00,
2013-03-27 08:15:00,32.0,5.5,29.29,SSE,166,4.0,4.0,32,0.00,,,0.00,VWS V13.01,2013-03-27 12:15:00,
2013-03-27 08:20:00,32.2,5.7,29.29,SSE,166,4.0,4.0,32,0.00,,,0.00,VWS V13.01,2013-03-27 12:20:00,
2013-03-27 08:25:00,32.4,5.8,29.29,SSE,166,4.0,4.0,32,0.00,,,0.00,VWS V13.01,2013-03-27 12:25:00,
2013-03-27 08:30:00,32.5,6.0,29.29,SSE,166,4.0,4.0,32,0.00,,,0.00,VWS V13.01,2013-03-27 12:30:00,
2013-03-27 08:35:00,32.7,6.1,29.29,SSE,166,4.0,4.0,32,0.00,,,0.00,VWS V13.01,2013-03-27 12:35:00,
2013-03-27 08:40:00,32.7,6.1,29.29,SSE,166,4.0,4.0,32,0.00,,,0.00,VWS V13.01,2013-03-27 12:40:00,
2013-03-27 08:45:00,32.9,7.0,29.29,SSE,166,4.0,4.0,33,0.00,,,0.00,VWS V13.01,2013-03-27 12:45:00,
2013-03-27 08:50:00,33.1,7.1,29.29,SSE,166,4.0,4.0,33,0.00,,,0.00,VWS V13.01,2013-03-27 12:50:00,
2013-03-27 08:55:00,33.3,7.3,29.29,SSE,166,4.0,4.0,33,0.00,,,0.00,VWS V13.01,2013-03-27 12:55:00,
2013-03-27 09:00:00,33.4,8.1,29.29,SSE,166,4.0,4.0,34,0.00,,,0.00,VWS V13.01,2013-03-27 13:00:00,
2013-03-27 09:05:00,33.8,7.8,29.29,SSE,166,4.0,4.0,33,0.00,,,0.00,VWS V13.01,2013-03-27 13:05:00,
2013-03-27 09:10:00,34.0,7.9,29.29,SSE,166,4.0,4.0,33,0.00,,,0.00,VWS V13.01,2013-03-27 13:10:00,
2013-03-27 09:15:00,34.2,7.4,29.29,SSE,166,4.0,4.0,32,0.00,,,0.00,VWS V13.01,2013-03-27 13:15:00,
2013-03-27 09:20:00,34.2,6.7,29.29,SSE,166,4.0,4.0,31,0.00,,,0.00,VWS V13.01,2013-03-27 13:20:00,
2013-03-27 09:25:00,34.3,6.9,29.29,SSE,166,4.0,4.0,31,0.00,,,0.00,VWS V13.01,2013-03-27 13:25:00,
2013-03-27 09:30:00,34.3,6.1,29.29,SSE,166,4.0,4.0,30,0.00,,,0.00,VWS V13.01,2013-03-27 13:30:00,
2013-03-27 09:35:00,34.7,6.4,29.29,SSE,166,4.0,4.0,30,0.00,,,0.00,VWS V13.01,2013-03-27 13:35:00,
2013-03-27 09:40:00,35.1,4.5,29.29,SSE,166,4.0,4.0,27,0.00,,,0.00,VWS V13.01,2013-03-27 13:40:00,
2013-03-27 09:45:00,35.6,2.4,29.29,SSE,166,4.0,4.0,24,0.00,,,0.00,VWS V13.01,2013-03-27 13:45:00,
2013-03-27 09:50:00,35.8,0.7,29.29,SSE,166,4.0,4.0,22,0.00,,,0.00,VWS V13.01,2013-03-27 13:50:00,
2013-03-27 09:55:00,36.0,0.8,29.29,SSE,166,4.0,4.0,22,0.00,,,0.00,VWS V13.01,2013-03-27 13:55:00,
2013-03-27 10:00:00,36.1,1.0,29.29,SSE,166,4.0,4.0,22,0.00,,,0.00,VWS V13.01,2013-03-27 14:00:00,
2013-03-27 10:05:00,36.3,1.1,29.29,SSE,166,4.0,4.0,22,0.00,,,0.00,VWS V13.01,2013-03-27 14:05:00,
2013-03-27 10:10:00,36.5,1.3,29.29,SSE,166,4.0,4.0,22,0.00,,,0.00,VWS V13.01,2013-03-27 14:10:00,
2013-03-27 10:15:00,36.7,1.4,29.29,SSE,166,4.0,4.0,22,0.00,,,0.00,VWS V13.01,2013-03-27 14:15:00,
2013-03-27 10:20:00,36.9,-1.5,29.29,SSE,166,4.0,4.0,19,0.00,,,0.00,VWS V13.01,2013-03-27 14:20:00,
2013-03-27 10:25:00,37.0,-1.4,29.29,SSE,166,4.0,4.0,19,0.00,,,0.00,VWS V13.01,2013-03-27 14:25:00,
2013-03-27 10:30:00,37.0,-1.4,29.29,SSE,166,4.0,4.0,19,0.00,,,0.00,VWS V13.01,2013-03-27 14:30:00,
2013-03-27 10:35:00,37.2,-1.2,29.29,SSE,166,4.0,4.0,19,0.00,,,0.00,VWS V13.01,2013-03-27 14:35:00,
2013-03-27 10:40:00,37.0,-1.4,29.29,SSE,166,4.0,4.0,19,0.00,,,0.00,VWS V13.01,2013-03-27 14:40:00,
2013-03-27 10:45:00,37.0,-1.4,29.29,SSE,166,4.0,4.0,19,0.00,,,0.00,VWS V13.01,2013-03-27 14:45:00,
2013-03-27 10:50:00,37.6,-0.9,29.29,SSE,166,4.0,4.0,19,0.00,,,0.00,VWS V13.01,2013-03-27 14:50:00,
2013-03-27 10:55:00,37.9,-0.6,29.29,SSE,166,4.0,4.0,19,0.00,,,0.00,VWS V13.01,2013-03-27 14:55:00,
2013-03-27 11:00:00,38.7,0.0,29.29,SSE,166,4.0,4.0,19,0.00,,,0.00,VWS V13.01,2013-03-27 15:00:00,
2013-03-27 11:05:00,39.0,0.3,29.29,SSE,166,4.0,4.0,19,0.00,,,0.00,VWS V13.01,2013-03-27 15:05:00,
2013-03-27 11:10:00,38.8,0.1,29.29,SSE,166,4.0,4.0,19,0.00,,,0.00,VWS V13.01,2013-03-27 15:10:00,
2013-03-27 11:15:00,39.2,-0.7,29.29,SSE,166,4.0,4.0,18,0.00,,,0.00,VWS V13.01,2013-03-27 15:15:00,
2013-03-27 11:20:00,39.4,-3.1,29.29,SSE,166,4.0,4.0,16,0.00,,,0.00,VWS V13.01,2013-03-27 15:20:00,
2013-03-27 11:25:00,39.7,-2.8,29.29,SSE,166,4.0,4.0,16,0.00,,,0.00,VWS V13.01,2013-03-27 15:25:00,
2013-03-27 11:30:00,39.9,-2.6,29.29,SSE,166,4.0,4.0,16,0.00,,,0.00,VWS V13.01,2013-03-27 15:30:00,
2013-03-27 11:35:00,39.7,-2.8,29.29,SSE,166,4.0,4.0,16,0.00,,,0.00,VWS V13.01,2013-03-27 15:35:00,
2013-03-27 11:40:00,39.9,-2.6,29.29,SSE,166,4.0,4.0,16,0.00,,,0.00,VWS V13.01,2013-03-27 15:40:00,
2013-03-27 11:45:00,40.3,-2.3,29.29,SSE,166,4.0,4.0,16,0.00,,,0.00,VWS V13.01,2013-03-27 15:45:00,
2013-03-27 11:50:00,40.3,-2.3,29.29,SSE,166,4.0,4.0,16,0.00,,,0.00,VWS V13.01,2013-03-27 15:50:00,
2013-03-27 11:55:00,40.3,-2.3,29.29,SSE,166,4.0,4.0,16,0.00,,,0.00,VWS V13.01,2013-03-27 15:55:00,
2013-03-27 12:00:00,39.7,-2.8,29.29,SSE,166,4.0,4.0,16,0.00,,,0.00,VWS V13.01,2013-03-27 16:00:00,
2013-03-27 12:05:00,40.5,-2.2,29.29,SSE,166,4.0,4.0,16,0.00,,,0.00,VWS V13.01,2013-03-27 16:05:00,
2013-03-27 12:10:00,40.6,-2.0,29.29,SSE,166,4.0,4.0,16,0.00,,,0.00,VWS V13.01,2013-03-27 16:10:00,
2013-03-27 12:15:00,40.3,-2.3,29.29,SSE,166,4.0,4.0,16,0.00,,,0.00,VWS V13.01,2013-03-27 16:15:00,
2013-03-27 12:20:00,39.7,-2.8,29.29,SSE,166,4.0,4.0,16,0.00,,,0.00,VWS V13.01,2013-03-27 16:20:00,
2013-03-27 12:25:00,39.7,-2.8,29.29,SSE,166,4.0,4.0,16,0.00,,,0.00,VWS V13.01,2013-03-27 16:25:00,
2013-03-27 12:30:00,39.7,-2.8,29.29,SSE,166,4.0,4.0,16,0.00,,,0.00,VWS V13.01,2013-03-27 16:30:00,
2013-03-27 12:35:00,40.3,-2.3,29.29,SSE,166,4.0,4.0,16,0.00,,,0.00,VWS V13.01,2013-03-27 16:35:00,
2013-03-27 12:40:00,40.8,-1.9,29.29,SSE,166,4.0,4.0,16,0.00,,,0.00,VWS V13.01,2013-03-27 16:40:00,
2013-03-27 12:45:00,40.6,-2.0,29.29,SSE,166,4.0,4.0,16,0.00,,,0.00,VWS V13.01,2013-03-27 16:45:00,
2013-03-27 12:50:00,41.0,-1.7,29.29,SSE,166,4.0,4.0,16,0.00,,,0.00,VWS V13.01,2013-03-27 16:50:00,
2013-03-27 12:55:00,41.0,-1.7,29.29,SSE,166,4.0,4.0,16,0.00,,,0.00,VWS V13.01,2013-03-27 16:55:00,
2013-03-27 13:00:00,41.4,-1.5,29.29,SSE,166,4.0,4.0,16,0.00,,,0.00,VWS V13.01,2013-03-27 17:00:00,
2013-03-27 13:05:00,41.7,-1.2,29.29,SSE,166,4.0,4.0,16,0.00,,,0.00,VWS V13.01,2013-03-27 17:05:00,
2013-03-27 13:10:00,41.5,-1.3,29.29,SSE,166,4.0,4.0,16,0.00,,,0.00,VWS V13.01,2013-03-27 17:10:00,
2013-03-27 13:15:00,41.2,-1.6,29.29,SSE,166,4.0,4.0,16,0.00,,,0.00,VWS V13.01,2013-03-27 17:15:00,
2013-03-27 13:20:00,41.4,-1.5,29.29,SSE,166,4.0,4.0,16,0.00,,,0.00,VWS V13.01,2013-03-27 17:20:00,
2013-03-27 13:25:00,41.2,-1.6,29.29,SSE,166,4.0,4.0,16,0.00,,,0.00,VWS V13.01,2013-03-27 17:25:00,
2013-03-27 13:30:00,41.5,-1.3,29.29,SSE,166,4.0,4.0,16,0.00,,,0.00,VWS V13.01,2013-03-27 17:30:00,
2013-03-27 13:35:00,41.5,-1.3,29.29,SSE,166,4.0,4.0,16,0.00,,,0.00,VWS V13.01,2013-03-27 17:35:00,
2013-03-27 13:40:00,41.5,-1.3,29.29,SSE,166,4.0,4.0,16,0.00,,,0.00,VWS V13.01,2013-03-27 17:40:00,
2013-03-27 13:45:00,41.5,-1.3,29.29,SSE,166,4.0,4.0,16,0.00,,,0.00,VWS V13.01,2013-03-27 17:45:00,
2013-03-27 13:50:00,41.7,-1.2,29.29,SSE,166,4.0,4.0,16,0.00,,,0.00,VWS V13.01,2013-03-27 17:50:00,
2013-03-27 13:55:00,41.9,-1.0,29.29,SSE,166,4.0,4.0,16,0.00,,,0.00,VWS V13.01,2013-03-27 17:55:00,
2013-03-27 14:00:00,42.1,-0.9,29.29,SSE,166,4.0,4.0,16,0.00,,,0.00,VWS V13.01,2013-03-27 18:00:00,
2013-03-27 14:05:00,41.9,-1.0,29.29,SSE,166,4.0,4.0,16,0.00,,,0.00,VWS V13.01,2013-03-27 18:05:00,
2013-03-27 14:10:00,41.9,-1.0,29.29,SSE,166,4.0,4.0,16,0.00,,,0.00,VWS V13.01,2013-03-27 18:10:00,
2013-03-27 14:15:00,41.7,-1.2,29.29,SSE,166,4.0,4.0,16,0.00,,,0.00,VWS V13.01,2013-03-27 18:15:00,
2013-03-27 14:20:00,42.3,-0.7,29.29,SSE,166,4.0,4.0,16,0.00,,,0.00,VWS V13.01,2013-03-27 18:20:00,
2013-03-27 14:25:00,42.3,-0.7,29.29,SSE,166,4.0,4.0,16,0.00,,,0.00,VWS V13.01,2013-03-27 18:25:00,
2013-03-27 14:30:00,42.3,-0.7,29.29,SSE,166,4.0,4.0,16,0.00,,,0.00,VWS V13.01,2013-03-27 18:30:00,
2013-03-27 14:35:00,42.3,-0.7,29.29,SSE,166,4.0,4.0,16,0.00,,,0.00,VWS V13.01,2013-03-27 18:35:00,
2013-03-27 14:40:00,42.1,-0.9,29.29,SSE,166,4.0,4.0,16,0.00,,,0.00,VWS V13.01,2013-03-27 18:40:00,
2013-03-27 14:45:00,42.3,-0.7,29.29,SSE,166,4.0,4.0,16,0.00,,,0.00,VWS V13.01,2013-03-27 18:45:00,
2013-03-27 14:50:00,42.4,-0.6,29.29,SSE,166,4.0,4.0,16,0.00,,,0.00,VWS V13.01,2013-03-27 18:50:00,
2013-03-27 14:55:00,42.3,-0.7,29.29,SSE,166,4.0,4.0,16,0.00,,,0.00,VWS V13.01,2013-03-27 18:55:00,
2013-03-27 15:00:00,42.1,-0.9,29.29,SSE,166,4.0,4.0,16,0.00,,,0.00,VWS V13.01,2013-03-27 19:00:00,
2013-03-27 15:05:00,41.9,-1.0,29.29,SSE,166,4.0,4.0,16,0.00,,,0.00,VWS V13.01,2013-03-27 19:05:00,
2013-03-27 15:10:00,42.1,-0.9,29.29,SSE,166,4.0,4.0,16,0.00,,,0.00,VWS V13.01,2013-03-27 19:10:00,
2013-03-27 15:15:00,42.1,-0.9,29.29,SSE,166,4.0,4.0,16,0.00,,,0.00,VWS V13.01,2013-03-27 19:15:00,
2013-03-27 15:20:00,42.1,-0.9,29.29,SSE,166,4.0,4.0,16,0.00,,,0.00,VWS V13.01,2013-03-27 19:20:00,
2013-03-27 15:25:00,42.3,-0.7,29.29,SSE,166,4.0,4.0,16,0.00,,,0.00,VWS V13.01,2013-03-27 19:25:00,
2013-03-27 15:30:00,42.3,-0.7,29.29,SSE,166,4.0,4.0,16,0.00,,,0.00,VWS V13.01,2013-03-27 19:30:00,
2013-03-27 15:35:00,42.3,-0.7,29.29,SSE,166,4.0,4.0,16,0.00,,,0.00,VWS V13.01,2013-03-27 19:35:00,
2013-03-27 15:40:00,42.4,-0.6,29.29,SSE,166,4.0,4.0,16,0.00,,,0.00,VWS V13.01,2013-03-27 19:40:00,
2013-03-27 15:45:00,42.4,-0.6,29.29,SSE,166,4.0,4.0,16,0.00,,,0.00,VWS V13.01,2013-03-27 19:45:00,
2013-03-27 15:50:00,42.4,-0.6,29.29,SSE,166,4.0,4.0,16,0.00,,,0.00,VWS V13.01,2013-03-27 19:50:00,
2013-03-27 15:55:00,42.4,-0.6,29.29,SSE,166,4.0,4.0,16,0.00,,,0.00,VWS V13.01,2013-03-27 19:55:00,
2013-03-27 16:00:00,42.4,-0.6,29.29,SSE,166,4.0,4.0,16,0.00,,,0.00,VWS V13.01,2013-03-27 20:00:00,
2013-03-27 16:05:00,42.3,-0.7,29.29,SSE,166,4.0,4.0,16,0.00,,,0.00,VWS V13.01,2013-03-27 20:05:00,
2013-03-27 16:10:00,42.4,-0.6,29.29,SSE,166,4.0,4.0,16,0.00,,,0.00,VWS V13.01,2013-03-27 20:10:00,
2013-03-27 16:15:00,42.3,-0.7,29.29,SSE,166,4.0,4.0,16,0.00,,,0.00,VWS V13.01,2013-03-27 20:15:00,
2013-03-27 16:20:00,42.4,-0.6,29.29,SSE,166,4.0,4.0,16,0.00,,,0.00,VWS V13.01,2013-03-27 20:20:00,
2013-03-27 16:25:00,42.3,-0.7,29.29,SSE,166,4.0,4.0,16,0.00,,,0.00,VWS V13.01,2013-03-27 20:25:00,
2013-03-27 16:30:00,42.3,-0.7,29.29,SSE,166,4.0,4.0,16,0.00,,,0.00,VWS V13.01,2013-03-27 20:30:00,
2013-03-27 16:35:00,42.4,-0.6,29.29,SSE,166,4.0,4.0,16,0.00,,,0.00,VWS V13.01,2013-03-27 20:35:00,
2013-03-27 16:40:00,42.3,-0.7,29.29,SSE,166,4.0,4.0,16,0.00,,,0.00,VWS V13.01,2013-03-27 20:40:00,
2013-03-27 16:45:00,42.3,-0.7,29.29,SSE,166,4.0,4.0,16,0.00,,,0.00,VWS V13.01,2013-03-27 20:45:00,
2013-03-27 16:50:00,42.4,-0.6,29.29,SSE,166,4.0,4.0,16,0.00,,,0.00,VWS V13.01,2013-03-27 20:50:00,
2013-03-27 16:55:00,42.6,-0.4,29.29,SSE,166,4.0,4.0,16,0.00,,,0.00,VWS V13.01,2013-03-27 20:55:00,
2013-03-27 17:00:00,42.6,-0.4,29.29,SSE,166,4.0,4.0,16,0.00,,,0.00,VWS V13.01,2013-03-27 21:00:00,
2013-03-27 17:05:00,42.4,-0.6,29.29,SSE,166,4.0,4.0,16,0.00,,,0.00,VWS V13.01,2013-03-27 21:05:00,
2013-03-27 17:10:00,42.4,-0.6,29.29,SSE,166,4.0,4.0,16,0.00,,,0.00,VWS V13.01,2013-03-27 21:10:00,
2013-03-27 17:15:00,42.4,-0.6,29.29,SSE,166,4.0,4.0,16,0.00,,,0.00,VWS V13.01,2013-03-27 21:15:00,
2013-03-27 17:20:00,42.6,-0.4,29.29,SSE,166,4.0,4.0,16,0.00,,,0.00,VWS V13.01,2013-03-27 21:20:00,
2013-03-27 17:25:00,42.6,-0.4,29.29,SSE,166,4.0,4.0,16,0.00,,,0.00,VWS V13.01,2013-03-27 21:25:00,
2013-03-27 17:30:00,42.6,-0.4,29.29,SSE,166,4.0,4.0,16,0.00,,,0.00,VWS V13.01,2013-03-27 21:30:00,
2013-03-27 17:35:00,42.8,-1.6,29.29,SSE,166,4.0,4.0,15,0.00,,,0.00,VWS V13.01,2013-03-27 21:35:00,
2013-03-27 17:40:00,43.3,-1.2,29.29,SSE,166,4.0,4.0,15,0.00,,,0.00,VWS V13.01,2013-03-27 21:40:00,
2013-03-27 17:46:00,43.5,-1.1,29.29,SSE,166,4.0,4.0,15,0.00,,,0.00,VWS V13.01,2013-03-27 21:46:00,
2013-03-27 17:50:00,43.2,-1.4,29.29,SSE,166,4.0,4.0,15,0.00,,,0.00,VWS V13.01,2013-03-27 21:50:00,
2013-03-27 17:55:00,42.8,-1.6,29.29,SSE,166,4.0,4.0,15,0.00,,,0.00,VWS V13.01,2013-03-27 21:55:00,
2013-03-27 18:00:00,42.4,-0.6,29.29,SSE,166,4.0,4.0,16,0.00,,,0.00,VWS V13.01,2013-03-27 22:00:00,
2013-03-27 18:06:00,42.4,-0.6,29.29,SSE,166,4.0,4.0,16,0.00,,,0.00,VWS V13.01,2013-03-27 22:06:00,
2013-03-27 18:10:00,42.4,-0.6,29.29,SSE,166,4.0,4.0,16,0.00,,,0.00,VWS V13.01,2013-03-27 22:10:00,
2013-03-27 18:15:00,42.4,-0.6,29.29,SSE,166,4.0,4.0,16,0.00,,,0.00,VWS V13.01,2013-03-27 22:15:00,
2013-03-27 18:20:00,42.4,-0.6,29.29,SSE,166,4.0,4.0,16,0.00,,,0.00,VWS V13.01,2013-03-27 22:20:00,
2013-03-27 18:26:00,42.6,-0.4,29.29,SSE,166,4.0,4.0,16,0.00,,,0.00,VWS V13.01,2013-03-27 22:26:00,
2013-03-27 18:31:00,42.4,-0.6,29.29,SSE,166,4.0,4.0,16,0.00,,,0.00,VWS V13.01,2013-03-27 22:31:00,
2013-03-27 18:36:00,42.6,-0.4,29.29,SSE,166,4.0,4.0,16,0.00,,,0.00,VWS V13.01,2013-03-27 22:36:00,
2013-03-27 18:41:00,42.6,-0.4,29.29,SSE,166,4.0,4.0,16,0.00,,,0.00,VWS V13.01,2013-03-27 22:41:00,
2013-03-27 18:46:00,42.6,-0.4,29.29,SSE,166,4.0,4.0,16,0.00,,,0.00,VWS V13.01,2013-03-27 22:46:00,
2013-03-27 18:50:00,42.4,-0.6,29.29,SSE,166,4.0,4.0,16,0.00,,,0.00,VWS V13.01,2013-03-27 22:50:00,
2013-03-27 18:55:00,42.3,-0.7,29.29,SSE,166,4.0,4.0,16,0.00,,,0.00,VWS V13.01,2013-03-27 22:55:00,
2013-03-27 19:00:00,42.3,-0.7,29.29,SSE,166,4.0,4.0,16,0.00,,,0.00,VWS V13.01,2013-03-27 23:00:00,
2013-03-27 19:05:00,42.1,-0.9,29.29,SSE,166,4.0,4.0,16,0.00,,,0.00,VWS V13.01,2013-03-27 23:05:00,
2013-03-27 19:10:00,42.1,-0.9,29.29,SSE,166,4.0,4.0,16,0.00,,,0.00,VWS V13.01,2013-03-27 23:10:00,
2013-03-27 19:16:00,41.9,-1.0,29.29,SSE,166,4.0,4.0,16,0.00,,,0.00,VWS V13.01,2013-03-27 23:16:00,
2013-03-27 19:20:00,41.7,-1.2,29.29,SSE,166,4.0,4.0,16,0.00,,,0.00,VWS V13.01,2013-03-27 23:20:00,
2013-03-27 19:26:00,41.7,-1.2,29.29,SSE,166,4.0,4.0,16,0.00,,,0.00,VWS V13.01,2013-03-27 23:26:00,
2013-03-27 19:31:00,41.5,-1.3,29.29,SSE,166,4.0,4.0,16,0.00,,,0.00,VWS V13.01,2013-03-27 23:31:00,
2013-03-27 19:36:00,41.4,-1.5,29.29,SSE,166,4.0,4.0,16,0.00,,,0.00,VWS V13.01,2013-03-27 23:36:00,
2013-03-27 19:41:00,41.2,-1.6,29.29,SSE,166,4.0,4.0,16,0.00,,,0.00,VWS V13.01,2013-03-27 23:41:00,
2013-03-27 19:45:00,41.0,-1.7,29.29,SSE,166,4.0,4.0,16,0.00,,,0.00,VWS V13.01,2013-03-27 23:45:00,
2013-03-27 19:50:00,40.6,-2.0,29.29,SSE,166,4.0,4.0,16,0.00,,,0.00,VWS V13.01,2013-03-27 23:50:00,
2013-03-27 19:55:00,40.5,-2.2,29.29,SSE,166,4.0,4.0,16,0.00,,,0.00,VWS V13.01,2013-03-27 23:55:00,
2013-03-27 20:00:00,40.5,-2.2,29.29,SSE,166,4.0,4.0,16,0.00,,,0.00,VWS V13.01,2013-03-28 00:00:00,
2013-03-27 20:05:00,40.3,-2.3,29.29,SSE,166,4.0,4.0,16,0.00,,,0.00,VWS V13.01,2013-03-28 00:05:00,
2013-03-27 20:11:00,40.1,-2.5,29.29,SSE,166,4.0,4.0,16,0.00,,,0.00,VWS V13.01,2013-03-28 00:11:00,
2013-03-27 20:16:00,39.9,-2.6,29.29,SSE,166,4.0,4.0,16,0.00,,,0.00,VWS V13.01,2013-03-28 00:16:00,
2013-03-27 20:21:00,39.7,-2.8,29.29,SSE,166,4.0,4.0,16,0.00,,,0.00,VWS V13.01,2013-03-28 00:21:00,
2013-03-27 20:26:00,39.6,-2.9,29.29,SSE,166,4.0,4.0,16,0.00,,,0.00,VWS V13.01,2013-03-28 00:26:00,
2013-03-27 20:31:00,39.7,-2.8,29.29,SSE,166,4.0,4.0,16,0.00,,,0.00,VWS V13.01,2013-03-28 00:31:00,
2013-03-27 20:36:00,39.6,-2.9,29.29,SSE,166,4.0,4.0,16,0.00,,,0.00,VWS V13.01,2013-03-28 00:36:00,
2013-03-27 20:41:00,39.6,-2.9,29.29,SSE,166,4.0,4.0,16,0.00,,,0.00,VWS V13.01,2013-03-28 00:41:00,
2013-03-27 20:45:00,39.6,-2.9,29.29,SSE,166,4.0,4.0,16,0.00,,,0.00,VWS V13.01,2013-03-28 00:45:00,
2013-03-27 20:51:00,39.4,-3.1,29.29,SSE,166,4.0,4.0,16,0.00,,,0.00,VWS V13.01,2013-03-28 00:51:00,
2013-03-27 20:56:00,39.0,-3.4,29.29,SSE,166,4.0,4.0,16,0.00,,,0.00,VWS V13.01,2013-03-28 00:56:00,
2013-03-27 21:00:00,38.8,-3.5,29.29,SSE,166,4.0,4.0,16,0.00,,,0.00,VWS V13.01,2013-03-28 01:00:00,
2013-03-27 21:06:00,38.5,-3.8,29.29,SSE,166,4.0,4.0,16,0.00,,,0.00,VWS V13.01,2013-03-28 01:06:00,
2013-03-27 21:11:00,37.9,-4.2,29.29,SSE,166,4.0,4.0,16,0.00,,,0.00,VWS V13.01,2013-03-28 01:11:00,
2013-03-27 21:16:00,37.4,-4.7,29.29,SSE,166,4.0,4.0,16,0.00,,,0.00,VWS V13.01,2013-03-28 01:16:00,
2013-03-27 21:21:00,37.0,-3.7,29.29,SSE,166,4.0,4.0,17,0.00,,,0.00,VWS V13.01,2013-03-28 01:21:00,
2013-03-27 21:26:00,37.0,-3.7,29.29,SSE,166,4.0,4.0,17,0.00,,,0.00,VWS V13.01,2013-03-28 01:26:00,
2013-03-27 21:31:00,36.9,-3.9,29.29,SSE,166,4.0,4.0,17,0.00,,,0.00,VWS V13.01,2013-03-28 01:31:00,
2013-03-27 21:36:00,36.7,-4.0,29.29,SSE,166,4.0,4.0,17,0.00,,,0.00,VWS V13.01,2013-03-28 01:36:00,
2013-03-27 21:41:00,36.7,-1.7,29.29,SSE,166,4.0,4.0,19,0.00,,,0.00,VWS V13.01,2013-03-28 01:41:00,
2013-03-27 21:46:00,36.9,-1.5,29.29,SSE,166,4.0,4.0,19,0.00,,,0.00,VWS V13.01,2013-03-28 01:46:00,
2013-03-27 21:51:00,36.9,-1.5,29.29,SSE,166,4.0,4.0,19,0.00,,,0.00,VWS V13.01,2013-03-28 01:51:00,
2013-03-27 21:56:00,36.7,-1.7,29.29,SSE,166,4.0,4.0,19,0.00,,,0.00,VWS V13.01,2013-03-28 01:56:00,
2013-03-27 22:01:00,36.3,-2.0,29.29,SSE,166,4.0,4.0,19,0.00,,,0.00,VWS V13.01,2013-03-28 02:01:00,
2013-03-27 22:06:00,36.1,-2.1,29.29,SSE,166,4.0,4.0,19,0.00,,,0.00,VWS V13.01,2013-03-28 02:06:00,
2013-03-27 22:11:00,36.1,-2.1,29.29,SSE,166,4.0,4.0,19,0.00,,,0.00,VWS V13.01,2013-03-28 02:11:00,
2013-03-27 22:16:00,36.3,-2.0,29.29,SSE,166,4.0,4.0,19,0.00,,,0.00,VWS V13.01,2013-03-28 02:16:00,
2013-03-27 22:21:00,36.3,1.1,29.29,SSE,166,4.0,4.0,22,0.00,,,0.00,VWS V13.01,2013-03-28 02:21:00,
2013-03-27 22:26:00,36.1,1.0,29.29,SSE,166,4.0,4.0,22,0.00,,,0.00,VWS V13.01,2013-03-28 02:26:00,
2013-03-27 22:31:00,36.0,2.7,29.29,SSE,166,4.0,4.0,24,0.00,,,0.00,VWS V13.01,2013-03-28 02:31:00,
2013-03-27 22:36:00,35.6,4.9,29.29,SSE,166,4.0,4.0,27,0.00,,,0.00,VWS V13.01,2013-03-28 02:36:00,
2013-03-27 22:41:00,35.6,6.5,29.29,SSE,166,4.0,4.0,29,0.00,,,0.00,VWS V13.01,2013-03-28 02:41:00,
2013-03-27 22:45:00,35.4,7.1,29.29,SSE,166,4.0,4.0,30,0.00,,,0.00,VWS V13.01,2013-03-28 02:45:00,
2013-03-27 22:51:00,35.4,7.1,29.29,SSE,166,4.0,4.0,30,0.00,,,0.00,VWS V13.01,2013-03-28 02:51:00,
2013-03-27 22:55:00,35.2,6.9,29.29,SSE,166,4.0,4.0,30,0.00,,,0.00,VWS V13.01,2013-03-28 02:55:00,
2013-03-27 23:01:00,35.1,6.8,29.29,SSE,166,4.0,4.0,30,0.00,,,0.00,VWS V13.01,2013-03-28 03:01:00,
2013-03-27 23:06:00,35.1,7.5,29.29,SSE,166,4.0,4.0,31,0.00,,,0.00,VWS V13.01,2013-03-28 03:06:00,
2013-03-27 23:11:00,34.9,7.3,29.29,SSE,166,4.0,4.0,31,0.00,,,0.00,VWS V13.01,2013-03-28 03:11:00,
2013-03-27 23:16:00,34.7,7.9,29.29,SSE,166,4.0,4.0,32,0.00,,,0.00,VWS V13.01,2013-03-28 03:16:00,
2013-03-27 23:21:00,34.7,7.9,29.29,SSE,166,4.0,4.0,32,0.00,,,0.00,VWS V13.01,2013-03-28 03:21:00,
2013-03-27 23:26:00,34.7,7.9,29.29,SSE,166,4.0,4.0,32,0.00,,,0.00,VWS V13.01,2013-03-28 03:26:00,
2013-03-27 23:31:00,34.7,7.9,29.29,SSE,166,4.0,4.0,32,0.00,,,0.00,VWS V13.01,2013-03-28 03:31:00,
2013-03-27 23:36:00,34.7,7.9,29.29,SSE,166,4.0,4.0,32,0.00,,,0.00,VWS V13.01,2013-03-28 03:36:00,
2013-03-27 23:41:00,34.5,7.7,29.29,SSE,166,4.0,4.0,32,0.00,,,0.00,VWS V13.01,2013-03-28 03:41:00,
2013-03-27 23:46:00,34.5,7.7,29.29,SSE,166,4.0,4.0,32,0.00,,,0.00,VWS V13.01,2013-03-28 03:46:00,
2013-03-27 23:51:00,34.5,8.4,29.29,SSE,166,4.0,4.0,33,0.00,,,0.00,VWS V13.01,2013-03-28 03:51:00,
2013-03-27 23:56:00,34.5,9.1,29.29,SSE,166,4.0,4.0,34,0.00,,,0.00,VWS V13.01,2013-03-28 03:56:00,